Location: Rio Tanui
(39.9167°N, 8.5167°E)
Time: 04:00:59
(UTC+00:00)

Cosmos 2208 Rocket - Pass Details

Date: 08 February 2023
Orbit: 753 x 805 km, 74.0° (Epoch: 01 April)

Event Time Altitude Azimuth Distance (km) Brightness Sun altitude
Rises 19:14:11 0° 338° (NNW) 3,216 7.5 -27.4°
Reaches altitude 10° 19:16:33 10° 336° (NNW) 2,291 6.8 -27.9°
Enters shadow 19:21:42 69° 255° (WSW) 816 4.2 -28.9°
